Terug naar catalogus

GHGSAT-C1

ActiefWetenschapSSO
NORAD 46278·PAYLOAD·🇨🇦 Canada

Gelanceerd Sep 3, 2020 vanaf Guiana Space Centre

Loading…

Volgende Passages (komende 24 uur)

TLE

VersSource: Space-Track

Epoch: Sep 14, 2026, 18:50 UTC

1 46278U 20061G   26257.78499572  .00142179  00000-0  67435-3 0  9991
2 46278  97.2031 346.3674 0001796 244.0802 116.0283 15.82568406337589

Volg GHGSAT-C1 in realtime met AllMySat

Download on the App Store